Weather in Mercedes

Uruguay     33°15′26″S   58°01′38″W
temp.,
°C
wind,
m/s
gust,
m/s
humid.,
%
clouds,
%
prec.,
mm/h
press.,
hPa
HPBL,
m
22 april, thu
thu2200:00+19ene8158155 0.0 1016426
03:00+18ene61387100 0.0 1017447
06:00+17ene51190100 0.0 1016389
09:00+18ene6128481 0.0 1017401
12:00+23ne6864100 0.0 1016682
15:00+25ne4555100 0.0 10141159
18:00+22e3370100 0.0 101443
21:00+19e4108270 0.0 1014200
23 april, fri
fri2300:00+18ene5118512 0.0 1015229
03:00+17ene412911 0.0 1015268
06:00+15ene511850 0.0 1014247
09:00+17ene5107591 0.0 1016294
12:00+23ne4557100 0.1 1015750
15:00+25wnw2353100 0.2 1012857
18:00+18ssw3491100 0.6 101395
21:00+17sse3698100 3.5 1015176
24 april, sat
sat2400:00+17e3697100 6.0 1014149
03:00+18sse1196100 6.6 101419
06:00+17ssw2497100 0.4 1014160
09:00+18ssw1195100 0.4 101682
12:00+21ssw448396 0.3 1016745
15:00+23ssw4571100 0.9 10151057
18:00+19ssw48900 1.2 1015331
21:00+16ssw39930 1.3 1017199
25 april, sun
sun2500:00+14ssw311930 0.0 1018250
03:00+11ssw37910 0.0 1018139
06:00+10ssw35910 0.0 101976
09:00+13ssw46860 0.0 1020231
12:00+18s45610 0.0 10191242
15:00+19s56530 0.0 10181503
18:00+16s367618 0.0 1018126
21:00+15s398197 0.0 1019337
26 april, mon
mon2600:00+12sse38930 0.1 1020169
03:00+11sse35890 0.1 101981
06:00+11sse34890 0.0 101961
09:00+14sse35820 0.0 1021198
12:00+19sse335926 0.0 10211369
15:00+20s335298 0.1 10191714
18:00+17s346696 0.0 101997
21:00+14se35750 0.0 1020112